Tracking 31027 objects as of 19-Jul-2025
HD Live streaming from Space Station
objects crossing your sky now

STARLINK-30136

Track STARLINK-30136 now!
10-day predictions
STARLINK-30136 is classified as:


NORAD ID: 56844
Int'l Code: 2023-079X
Perigee: 565.7 km
Apogee: 566.7 km
Inclination: 43.0 °
Period: 95.8 minutes
Semi major axis: 6937 km
RCS: Unknown
Launch date: June 4, 2023
Source: United States (US)
Launch site: AIR FORCE EASTERN TEST RANGE (AFETR)
Your satellite tracking list
FLOCK 4Q 34
Track 1 satellite(s)




NASA's NSSDC Master Catalog

Two Line Element Set (TLE):
1 56844U 23079X   25199.57732509  .00000772  00000-0  72178-4 0  9997
2 56844  43.0025 299.7276 0000760 259.6297 100.4460 15.02537955117666
Source of the keplerian elements: AFSPC